| time (UTC) | temp F | wind direction | speed MPH | gust MPH | rain 1hr in | rain 24hr in | rain mn in | humidity % | barometer mb |
| 20260902015548 | 69 | 252 | 1.0 | 8.0 | 0.00 | 0.72 | 0.67 | 95 | 1016.4 |
| 20260902015042 | 69 | 243 | 2.0 | 8.0 | 0.00 | 0.72 | 0.67 | 95 | 1016.2 |
| 20260902014536 | 70 | 88 | 1.0 | 6.0 | 0.00 | 0.72 | 0.67 | 95 | 1016.1 |
| 20260902014517 | 70 | 201 | 0.0 | 8.0 | 0.00 | 0.72 | 0.67 | 95 | 1016.2 |
| 20260902013520 | 70 | 24 | 1.0 | 8.0 | 0.00 | 0.72 | 0.67 | 95 | 1016.4 |
| 20260902013014 | 70 | 24 | 1.0 | 8.0 | 0.00 | 0.72 | 0.67 | 95 | 1016.2 |
| 20260902012504 | 70 | 25 | 1.0 | 8.0 | 0.00 | 0.72 | 0.67 | 95 | 1016.2 |
| 20260902011958 | 71 | 269 | 1.0 | 5.0 | 0.00 | 0.72 | 0.67 | 95 | 1015.9 |
| 20260902011453 | 71 | 17 | 1.0 | 9.0 | 0.00 | 0.72 | 0.67 | 95 | 1016.1 |
| 20260902010954 | 71 | 20 | 2.0 | 9.0 | 0.00 | 0.72 | 0.67 | 95 | 1015.9 |
| 20260902010436 | 72 | 25 | 1.0 | 4.0 | 0.00 | 0.72 | 0.67 | 95 | 1015.8 |
| 20260902005929 | 72 | 67 | 1.0 | 9.0 | 0.00 | 0.72 | 0.67 | 96 | 1015.8 |
| 20260902005420 | 72 | 28 | 1.0 | 9.0 | 0.00 | 0.72 | 0.67 | 96 | 1015.7 |
| 20260902005133 | 72 | 31 | 1.0 | 5.0 | 0.00 | 0.72 | 0.67 | 95 | 1015.3 |
| 20260902004408 | 71 | 332 | 0.0 | 3.0 | 0.00 | 0.72 | 0.67 | 95 | 1015.2 |
| 20260902003858 | 71 | 247 | 0.0 | 1.0 | 0.00 | 0.72 | 0.67 | 95 | 1015.2 |
| 20260902003353 | 71 | 247 | 0.0 | 1.0 | 0.00 | 0.72 | 0.67 | 95 | 1015.3 |
| 20260902002847 | 71 | 247 | 0.0 | 1.0 | 0.00 | 0.72 | 0.67 | 95 | 1015.2 |
| 20260902002336 | 71 | 247 | 0.0 | 1.0 | 0.00 | 0.72 | 0.67 | 95 | 1015.2 |
| 20260902001830 | 71 | 247 | 0.0 | 1.0 | 0.00 | 0.72 | 0.67 | 95 | 1015.1 |
| 20260902001548 | 71 | 247 | 0.0 | 0.0 | 0.00 | 0.72 | 0.67 | 95 | 1015.2 |
| 20260902000814 | 71 | 247 | 0.0 | 0.0 | 0.00 | 0.72 | 0.67 | 95 | 1015.3 |
| 20260902000308 | 71 | 247 | 0.0 | 0.0 | 0.00 | 0.72 | 0.67 | 95 | 1015.1 |
| 20260901235802 | 71 | 247 | 0.0 | 0.0 | 0.01 | 0.72 | 0.67 | 94 | 1015.1 |
| 20260901235252 | 71 | 247 | 0.0 | 1.0 | 0.01 | 0.72 | 0.67 | 94 | 1015.0 |
| 20260901234748 | 71 | 247 | 0.0 | 1.0 | 0.01 | 0.72 | 0.67 | 94 | 1015.0 |
| 20260901234501 | 71 | 247 | 0.0 | 1.0 | 0.01 | 0.72 | 0.67 | 93 | 1015.2 |
| 20260901233730 | 71 | 247 | 0.0 | 1.0 | 0.01 | 0.72 | 0.67 | 93 | 1015.0 |
| 20260901233236 | 71 | 247 | 0.0 | 2.0 | 0.06 | 0.72 | 0.67 | 93 | 1014.9 |
| 20260901233224 | 71 | 247 | 0.0 | 1.0 | 0.02 | 0.72 | 0.67 | 93 | 1014.9 |
| 20260901232208 | 72 | 247 | 0.0 | 2.0 | 0.23 | 0.72 | 0.67 | 93 | 1015.1 |
| 20260901231702 | 72 | 246 | 0.0 | 2.0 | 0.33 | 0.72 | 0.67 | 93 | 1015.1 |
| 20260901231156 | 72 | 246 | 0.0 | 2.0 | 0.33 | 0.72 | 0.67 | 93 | 1015.3 |
| 20260901230911 | 72 | 178 | 0.0 | 2.0 | 0.33 | 0.72 | 0.67 | 92 | 1015.2 |
| 20260901230141 | 73 | 148 | 0.0 | 0.0 | 0.33 | 0.72 | 0.67 | 92 | 1014.8 |
| 20260901225634 | 73 | 148 | 0.0 | 1.0 | 0.32 | 0.71 | 0.66 | 91 | 1015.0 |
| 20260901225129 | 74 | 148 | 0.0 | 1.0 | 0.32 | 0.71 | 0.66 | 91 | 1014.9 |
| 20260901224625 | 74 | 148 | 0.0 | 2.0 | 0.32 | 0.71 | 0.66 | 90 | 1014.6 |
| 20260901224125 | 75 | 148 | 0.0 | 2.0 | 0.32 | 0.71 | 0.66 | 89 | 1014.7 |
| 20260901223623 | 75 | 148 | 1.0 | 6.0 | 0.32 | 0.71 | 0.66 | 88 | 1014.7 |
| 20260901223343 | 76 | 148 | 1.0 | 6.0 | 0.31 | 0.70 | 0.65 | 86 | 1014.7 |
| 20260901222624 | 78 | 87 | 1.0 | 7.0 | 0.25 | 0.64 | 0.61 | 90 | 1015.0 |
| 20260901222121 | 79 | 84 | 1.0 | 7.0 | 0.06 | 0.45 | 0.42 | 89 | 1014.2 |
| 20260901221618 | 79 | 62 | 1.0 | 4.0 | 0.00 | 0.39 | 0.34 | 89 | 1014.2 |
| 20260901221119 | 80 | 55 | 0.0 | 4.0 | 0.00 | 0.39 | 0.34 | 88 | 1014.0 |
| 20260901220630 | 80 | 26 | 1.0 | 4.0 | 0.00 | 0.39 | 0.34 | 87 | 1014.0 |
| 20260901220619 | 80 | 26 | 0.0 | 4.0 | 0.00 | 0.39 | 0.34 | 88 | 1013.8 |
| 20260901215618 | 80 | 34 | 1.0 | 5.0 | 0.00 | 0.39 | 0.34 | 87 | 1013.9 |
| 20260901215118 | 80 | 74 | 0.0 | 5.0 | 0.00 | 0.39 | 0.34 | 86 | 1014.2 |
| 20260901214619 | 81 | 63 | 1.0 | 5.0 | 0.00 | 0.39 | 0.34 | 86 | 1014.3 |
| 20260901214353 | 81 | 50 | 1.0 | 5.0 | 0.00 | 0.39 | 0.34 | 86 | 1014.2 |
| 20260901213615 | 81 | 29 | 1.0 | 5.0 | 0.00 | 0.39 | 0.34 | 85 | 1014.0 |
| 20260901213115 | 82 | 328 | 2.0 | 5.0 | 0.00 | 0.39 | 0.34 | 84 | 1013.9 |
| 20260901212615 | 82 | 49 | 1.0 | 5.0 | 0.00 | 0.39 | 0.34 | 84 | 1014.0 |
| 20260901212115 | 83 | 61 | 0.0 | 4.0 | 0.00 | 0.39 | 0.34 | 84 | 1013.9 |
| 20260901211615 | 83 | 61 | 0.0 | 4.0 | 0.00 | 0.39 | 0.34 | 83 | 1014.0 |
| 20260901211116 | 83 | 42 | 0.0 | 4.0 | 0.00 | 0.39 | 0.34 | 82 | 1013.9 |
| 20260901210612 | 84 | 215 | 0.0 | 1.0 | 0.00 | 0.39 | 0.34 | 82 | 1014.0 |
| 20260901210119 | 84 | 215 | 0.0 | 1.0 | 0.00 | 0.39 | 0.34 | 82 | 1013.9 |
| 20260901205613 | 84 | 215 | 0.0 | 1.0 | 0.00 | 0.39 | 0.34 | 83 | 1013.6 |
| 20260901205111 | 84 | 215 | 0.0 | 2.0 | 0.00 | 0.39 | 0.34 | 81 | 1013.7 |
| 20260901204609 | 84 | 215 | 0.0 | 2.0 | 0.00 | 0.39 | 0.34 | 80 | 1013.8 |
| 20260901204335 | 84 | 219 | 0.0 | 2.0 | 0.00 | 0.39 | 0.34 | 80 | 1013.9 |
| 20260901203610 | 84 | 219 | 0.0 | 2.0 | 0.00 | 0.39 | 0.34 | 81 | 1013.8 |
| 20260901203315 | 83 | 216 | 0.0 | 2.0 | 0.00 | 0.39 | 0.34 | 81 | 1013.7 |
| 20260901203211 | 83 | 219 | 0.0 | 2.0 | 0.00 | 0.39 | 0.34 | 83 | 1013.7 |
| 20260901202106 | 83 | 216 | 0.0 | 2.0 | 0.00 | 0.39 | 0.34 | 80 | 1013.9 |
| 20260901201604 | 84 | 215 | 0.0 | 3.0 | 0.00 | 0.39 | 0.34 | 81 | 1013.9 |
| 20260901201104 | 83 | 215 | 1.0 | 3.0 | 0.00 | 0.39 | 0.34 | 81 | 1014.0 |
| 20260901200604 | 83 | 107 | 1.0 | 3.0 | 0.00 | 0.39 | 0.34 | 81 | 1013.9 |
| 20260901200116 | 83 | 139 | 0.0 | 3.0 | 0.00 | 0.39 | 0.34 | 81 | 1013.8 |
| 20260901195603 | 83 | 139 | 0.0 | 3.0 | 0.00 | 0.39 | 0.34 | 80 | 1014.0 |
| 20260901195103 | 84 | 95 | 0.0 | 4.0 | 0.00 | 0.39 | 0.34 | 82 | 1013.9 |
| 20260901194605 | 83 | 95 | 0.0 | 4.0 | 0.00 | 0.39 | 0.34 | 81 | 1014.2 |
| 20260901194100 | 83 | 100 | 1.0 | 3.0 | 0.00 | 0.39 | 0.34 | 83 | 1014.0 |
| 20260901193819 | 83 | 97 | 1.0 | 3.0 | 0.00 | 0.39 | 0.34 | 82 | 1013.9 |
| 20260901193323 | 83 | 136 | 1.0 | 3.0 | 0.00 | 0.39 | 0.34 | 81 | 1014.0 |
| 20260901192557 | 83 | 94 | 1.0 | 4.0 | 0.00 | 0.40 | 0.34 | 81 | 1014.0 |
| 20260901192540 | 83 | 263 | 1.0 | 4.0 | 0.00 | 0.40 | 0.34 | 82 | 1014.2 |
| 20260901191558 | 83 | 134 | 1.0 | 4.0 | 0.00 | 0.40 | 0.34 | 81 | 1014.3 |
| 20260901191323 | 83 | 230 | 1.0 | 4.0 | 0.00 | 0.40 | 0.34 | 82 | 1014.4 |
| 20260901190603 | 82 | 27 | 1.0 | 3.0 | 0.00 | 0.40 | 0.34 | 83 | 1014.3 |
| 20260901190311 | 82 | 229 | 1.0 | 3.0 | 0.00 | 0.40 | 0.34 | 83 | 1014.4 |
| 20260901185542 | 82 | 230 | 0.0 | 2.0 | 0.00 | 0.40 | 0.34 | 84 | 1014.4 |
| 20260901185043 | 82 | 213 | 1.0 | 2.0 | 0.00 | 0.40 | 0.34 | 83 | 1014.5 |
| 20260901184543 | 81 | 161 | 0.0 | 4.0 | 0.00 | 0.40 | 0.34 | 85 | 1014.5 |
| 20260901184042 | 81 | 51 | 0.0 | 4.0 | 0.00 | 0.40 | 0.34 | 85 | 1014.5 |
| 20260901183539 | 81 | 51 | 0.0 | 4.0 | 0.00 | 0.40 | 0.34 | 86 | 1014.4 |
| 20260901183308 | 81 | 51 | 0.0 | 4.0 | 0.00 | 0.40 | 0.34 | 87 | 1014.4 |
| 20260901182540 | 80 | 117 | 0.0 | 1.0 | 0.00 | 0.40 | 0.34 | 89 | 1014.4 |
| 20260901182041 | 80 | 117 | 0.0 | 1.0 | 0.00 | 0.40 | 0.34 | 90 | 1014.3 |
| 20260901181815 | 79 | 105 | 0.0 | 1.0 | 0.00 | 0.40 | 0.34 | 92 | 1014.5 |
| 20260901181035 | 79 | 94 | 0.0 | 3.0 | 0.00 | 0.40 | 0.34 | 94 | 1014.5 |
| 20260901180535 | 78 | 94 | 0.0 | 3.0 | 0.00 | 0.40 | 0.34 | 94 | 1014.5 |
| 20260901180033 | 77 | 163 | 0.0 | 3.0 | 0.00 | 0.40 | 0.34 | 95 | 1014.4 |
| 20260901175536 | 77 | 205 | 0.0 | 3.0 | 0.00 | 0.40 | 0.34 | 97 | 1014.4 |
| 20260901175035 | 77 | 155 | 1.0 | 3.0 | 0.00 | 0.40 | 0.34 | 97 | 1014.3 |
| 20260901174536 | 77 | 88 | 0.0 | 4.0 | 0.00 | 0.40 | 0.34 | 98 | 1014.3 |
| 20260901174030 | 76 | 60 | 0.0 | 4.0 | 0.00 | 0.40 | 0.34 | 98 | 1014.0 |
| 20260901173529 | 76 | 60 | 1.0 | 4.0 | 0.00 | 0.40 | 0.34 | 98 | 1014.3 |
| 20260901173027 | 75 | 130 | 1.0 | 4.0 | 0.00 | 0.40 | 0.34 | 97 | 1014.2 |
| 20260901172527 | 75 | 66 | 1.0 | 3.0 | 0.00 | 0.40 | 0.34 | 97 | 1014.3 |
| 20260901172024 | 74 | 227 | 0.0 | 2.0 | 0.00 | 0.40 | 0.34 | 98 | 1014.3 |
| 20260901171523 | 74 | 223 | 0.0 | 2.0 | 0.00 | 0.40 | 0.34 | 98 | 1014.4 |
| 20260901171024 | 74 | 211 | 0.0 | 1.0 | 0.00 | 0.40 | 0.34 | 98 | 1014.6 |
| 20260901170751 | 74 | 166 | 0.0 | 0.0 | 0.00 | 0.40 | 0.34 | 97 | 1014.9 |
| 20260901170026 | 74 | 166 | 0.0 | 0.0 | 0.00 | 0.40 | 0.34 | 97 | 1015.3 |
| 20260901165603 | 74 | 166 | 0.0 | 1.0 | 0.01 | 0.40 | 0.34 | 97 | 1015.6 |
| 20260901165535 | 74 | 166 | 0.0 | 1.0 | 0.00 | 0.40 | 0.34 | 97 | 1015.8 |
| 20260901164534 | 74 | 166 | 0.0 | 5.0 | 0.01 | 0.40 | 0.34 | 98 | 1015.4 |
| 20260901164019 | 74 | 166 | 0.0 | 5.0 | 0.01 | 0.40 | 0.34 | 97 | 1015.4 |
| 20260901163520 | 73 | 167 | 0.0 | 5.0 | 0.01 | 0.40 | 0.34 | 98 | 1015.4 |
| 20260901163245 | 73 | 167 | 0.0 | 5.0 | 0.01 | 0.40 | 0.34 | 97 | 1015.2 |
| 20260901162520 | 73 | 162 | 0.0 | 2.0 | 0.01 | 0.40 | 0.34 | 97 | 1015.1 |
| 20260901162239 | 73 | 158 | 0.0 | 2.0 | 0.02 | 0.40 | 0.34 | 97 | 1015.1 |
| 20260901161532 | 73 | 184 | 0.0 | 0.0 | 0.03 | 0.40 | 0.34 | 97 | 1015.1 |
| 20260901161021 | 73 | 184 | 0.0 | 0.0 | 0.03 | 0.40 | 0.34 | 97 | 1015.0 |
| 20260901160746 | 73 | 184 | 0.0 | 1.0 | 0.04 | 0.40 | 0.34 | 97 | 1015.1 |
| 20260901160244 | 73 | 184 | 0.0 | 1.0 | 0.05 | 0.40 | 0.34 | 97 | 1015.3 |
| 20260901155520 | 73 | 179 | 0.0 | 0.0 | 0.06 | 0.40 | 0.34 | 97 | 1015.5 |
| 20260901155021 | 73 | 179 | 0.0 | 0.0 | 0.05 | 0.39 | 0.34 | 98 | 1015.6 |
| 20260901154521 | 72 | 179 | 0.0 | 0.0 | 0.05 | 0.39 | 0.33 | 97 | 1015.8 |
| 20260901154019 | 72 | 179 | 0.0 | 0.0 | 0.06 | 0.39 | 0.33 | 98 | 1015.9 |
| 20260901153520 | 72 | 182 | 0.0 | 0.0 | 0.07 | 0.39 | 0.33 | 97 | 1015.9 |
| 20260901153019 | 72 | 182 | 0.0 | 0.0 | 0.07 | 0.39 | 0.33 | 97 | 1016.2 |
| 20260901153008 | 72 | 182 | 0.0 | 0.0 | 0.08 | 0.39 | 0.33 | 97 | 1016.1 |
| 20260901152020 | 72 | 182 | 0.0 | 0.0 | 0.07 | 0.38 | 0.32 | 97 | 1016.3 |
| 20260901151748 | 72 | 182 | 0.0 | 0.0 | 0.06 | 0.37 | 0.31 | 97 | 1016.5 |
| 20260901151019 | 72 | 182 | 0.0 | 0.0 | 0.06 | 0.37 | 0.31 | 97 | 1016.5 |
| 20260901150520 | 72 | 182 | 0.0 | 0.0 | 0.05 | 0.36 | 0.30 | 97 | 1016.6 |
| 20260901150238 | 72 | 182 | 0.0 | 0.0 | 0.04 | 0.35 | 0.30 | 97 | 1016.7 |
| 20260901145737 | 72 | 182 | 0.0 | 0.0 | 0.03 | 0.34 | 0.28 | 97 | 1016.5 |
| 20260901145021 | 72 | 182 | 0.0 | 1.0 | 0.03 | 0.34 | 0.28 | 97 | 1016.3 |
| 20260901144515 | 72 | 182 | 0.0 | 1.0 | 0.02 | 0.33 | 0.27 | 97 | 1016.4 |
| 20260901144006 | 72 | 182 | 0.0 | 1.0 | 0.01 | 0.32 | 0.27 | 97 | 1016.6 |
| 20260901143500 | 72 | 182 | 0.0 | 1.0 | 0.01 | 0.32 | 0.26 | 97 | 1016.7 |
| 20260901142953 | 72 | 182 | 0.0 | 1.0 | 0.01 | 0.32 | 0.26 | 97 | 1016.5 |
| 20260901142456 | 72 | 182 | 0.0 | 0.0 | 0.00 | 0.31 | 0.25 | 97 | 1016.5 |
| 20260901142443 | 72 | 182 | 0.0 | 1.0 | 0.00 | 0.31 | 0.25 | 97 | 1016.5 |
| 20260901141431 | 72 | 182 | 0.0 | 0.0 | 0.00 | 0.31 | 0.25 | 97 | 1016.4 |
| 20260901140934 | 72 | 182 | 0.0 | 1.0 | 0.00 | 0.31 | 0.25 | 97 | 1015.9 |
| 20260901140415 | 72 | 182 | 0.0 | 1.0 | 0.00 | 0.31 | 0.25 | 97 | 1016.0 |
| 20260901135909 | 72 | 182 | 0.0 | 1.0 | 0.00 | 0.31 | 0.25 | 97 | 1015.9 |
| 20260901135359 | 71 | 182 | 0.0 | 1.0 | 0.00 | 0.31 | 0.25 | 97 | 1015.9 |
| 20260901135124 | 72 | 182 | 0.0 | 1.0 | 0.00 | 0.31 | 0.25 | 97 | 1015.8 |
| 20260901134610 | 71 | 182 | 0.0 | 0.0 | 0.00 | 0.31 | 0.25 | 97 | 1015.7 |
| 20260901133836 | 71 | 182 | 0.0 | 0.0 | 0.00 | 0.31 | 0.25 | 97 | 1015.9 |
| 20260901133602 | 71 | 182 | 0.0 | 0.0 | 0.00 | 0.31 | 0.25 | 97 | 1015.8 |
| 20260901132824 | 71 | 182 | 0.0 | 0.0 | 0.00 | 0.31 | 0.25 | 98 | 1015.9 |
| 20260901132314 | 71 | 182 | 0.0 | 0.0 | 0.00 | 0.31 | 0.25 | 97 | 1016.0 |
| 20260901131807 | 71 | 182 | 0.0 | 0.0 | 0.00 | 0.31 | 0.25 | 97 | 1016.0 |
| 20260901131301 | 71 | 182 | 0.0 | 0.0 | 0.00 | 0.31 | 0.25 | 97 | 1016.1 |
| 20260901130751 | 71 | 182 | 0.0 | 0.0 | 0.00 | 0.31 | 0.25 | 97 | 1016.0 |
| 20260901130507 | 71 | 182 | 0.0 | 0.0 | 0.00 | 0.31 | 0.25 | 97 | 1016.1 |
| 20260901125739 | 71 | 182 | 0.0 | 0.0 | 0.00 | 0.31 | 0.25 | 97 | 1016.1 |
| 20260901125719 | 71 | 182 | 0.0 | 0.0 | 0.00 | 0.31 | 0.25 | 97 | 1015.9 |
| 20260901124734 | 71 | 182 | 0.0 | 0.0 | 0.00 | 0.31 | 0.25 | 97 | 1016.2 |
| 20260901124217 | 70 | 182 | 0.0 | 0.0 | 0.00 | 0.31 | 0.25 | 97 | 1016.2 |
| 20260901123707 | 70 | 182 | 0.0 | 0.0 | 0.00 | 0.31 | 0.25 | 97 | 1016.2 |
| 20260901123201 | 70 | 182 | 0.0 | 0.0 | 0.00 | 0.31 | 0.25 | 97 | 1016.2 |
| 20260901122656 | 70 | 182 | 0.0 | 0.0 | 0.00 | 0.31 | 0.25 | 97 | 1016.1 |
| 20260901122146 | 70 | 182 | 0.0 | 1.0 | 0.00 | 0.31 | 0.25 | 97 | 1016.2 |
| 20260901121640 | 70 | 182 | 0.0 | 1.0 | 0.01 | 0.31 | 0.25 | 97 | 1016.1 |
| 20260901121133 | 70 | 182 | 0.0 | 1.0 | 0.02 | 0.31 | 0.25 | 97 | 1015.9 |
| 20260901120623 | 70 | 173 | 0.0 | 0.0 | 0.11 | 0.31 | 0.25 | 97 | 1015.8 |
| 20260901120118 | 70 | 173 | 0.0 | 0.0 | 0.12 | 0.31 | 0.25 | 97 | 1015.9 |
| 20260901115838 | 70 | 173 | 0.0 | 0.0 | 0.12 | 0.31 | 0.25 | 97 | 1015.7 |
| 20260901115101 | 70 | 173 | 0.0 | 0.0 | 0.12 | 0.31 | 0.25 | 97 | 1015.7 |
| 20260901115047 | 70 | 173 | 0.0 | 0.0 | 0.12 | 0.31 | 0.25 | 97 | 1015.6 |
| 20260901114049 | 69 | 173 | 0.0 | 0.0 | 0.12 | 0.31 | 0.25 | 97 | 1015.9 |
| 20260901113539 | 69 | 173 | 0.0 | 0.0 | 0.12 | 0.31 | 0.25 | 97 | 1016.1 |
| 20260901113033 | 69 | 173 | 0.0 | 2.0 | 0.12 | 0.31 | 0.25 | 97 | 1016.0 |
| 20260901112528 | 69 | 173 | 0.0 | 2.0 | 0.12 | 0.31 | 0.25 | 97 | 1016.1 |
| 20260901112017 | 69 | 173 | 0.0 | 2.0 | 0.11 | 0.30 | 0.25 | 97 | 1016.1 |
| 20260901111733 | 69 | 173 | 0.0 | 2.0 | 0.11 | 0.30 | 0.24 | 97 | 1016.0 |
| 20260901111006 | 69 | 207 | 0.0 | 1.0 | 0.09 | 0.28 | 0.22 | 97 | 1015.9 |
| 20260901110455 | 69 | 207 | 0.0 | 0.0 | 0.01 | 0.20 | 0.14 | 97 | 1016.3 |
| 20260901110214 | 69 | 207 | 0.0 | 0.0 | 0.00 | 0.19 | 0.13 | 97 | 1016.4 |
| 20260901105443 | 69 | 207 | 0.0 | 0.0 | 0.00 | 0.19 | 0.13 | 97 | 1016.4 |
| 20260901104933 | 69 | 207 | 0.0 | 0.0 | 0.00 | 0.19 | 0.13 | 96 | 1016.3 |
| 20260901104427 | 69 | 207 | 0.0 | 0.0 | 0.00 | 0.19 | 0.13 | 96 | 1016.3 |
| 20260901103921 | 69 | 207 | 0.0 | 0.0 | 0.00 | 0.19 | 0.13 | 96 | 1016.2 |
| 20260901103411 | 69 | 207 | 0.0 | 0.0 | 0.00 | 0.19 | 0.13 | 96 | 1016.3 |
| 20260901102904 | 69 | 207 | 0.0 | 0.0 | 0.00 | 0.19 | 0.13 | 96 | 1016.2 |
| 20260901102359 | 69 | 207 | 0.0 | 0.0 | 0.00 | 0.19 | 0.13 | 96 | 1016.2 |
| 20260901101849 | 69 | 207 | 0.0 | 0.0 | 0.00 | 0.19 | 0.13 | 96 | 1016.1 |
| 20260901101343 | 69 | 207 | 0.0 | 0.0 | 0.00 | 0.19 | 0.13 | 96 | 1016.2 |
| 20260901100837 | 69 | 207 | 0.0 | 0.0 | 0.00 | 0.19 | 0.13 | 96 | 1015.9 |
| 20260901100329 | 69 | 207 | 0.0 | 0.0 | 0.00 | 0.19 | 0.13 | 96 | 1015.9 |
| 20260901095821 | 69 | 207 | 0.0 | 0.0 | 0.00 | 0.19 | 0.13 | 96 | 1015.9 |
| 20260901095315 | 69 | 207 | 0.0 | 0.0 | 0.00 | 0.19 | 0.13 | 96 | 1016.1 |
| 20260901094806 | 69 | 207 | 0.0 | 0.0 | 0.00 | 0.19 | 0.13 | 96 | 1016.2 |
| 20260901094525 | 69 | 207 | 0.0 | 0.0 | 0.00 | 0.19 | 0.13 | 96 | 1016.0 |
| 20260901094239 | 69 | 207 | 0.0 | 0.0 | 0.00 | 0.19 | 0.13 | 96 | 1016.1 |
| 20260901093243 | 69 | 207 | 0.0 | 0.0 | 0.00 | 0.19 | 0.13 | 96 | 1016.1 |
| 20260901092738 | 69 | 207 | 0.0 | 0.0 | 0.00 | 0.19 | 0.13 | 96 | 1015.9 |
| 20260901092454 | 69 | 207 | 0.0 | 0.0 | 0.00 | 0.19 | 0.13 | 96 | 1015.9 |
| 20260901092219 | 69 | 207 | 0.0 | 0.0 | 0.00 | 0.19 | 0.13 | 96 | 1016.0 |
| 20260901091216 | 69 | 207 | 0.0 | 0.0 | 0.00 | 0.19 | 0.13 | 96 | 1016.0 |
| 20260901090931 | 69 | 207 | 0.0 | 0.0 | 0.00 | 0.19 | 0.13 | 96 | 1016.0 |
| 20260901090159 | 69 | 207 | 0.0 | 0.0 | 0.00 | 0.19 | 0.13 | 96 | 1016.0 |
| 20260901085918 | 69 | 207 | 0.0 | 0.0 | 0.00 | 0.19 | 0.13 | 96 | 1016.0 |
| 20260901085147 | 69 | 207 | 0.0 | 0.0 | 0.00 | 0.19 | 0.13 | 96 | 1016.1 |
| 20260901084638 | 69 | 207 | 0.0 | 0.0 | 0.00 | 0.19 | 0.13 | 96 | 1016.2 |
| 20260901084132 | 69 | 207 | 0.0 | 0.0 | 0.00 | 0.19 | 0.13 | 96 | 1016.3 |
| 20260901083830 | 69 | 207 | 0.0 | 0.0 | 0.01 | 0.19 | 0.13 | 96 | 1016.4 |
| 20260901083710 | 69 | 207 | 0.0 | 0.0 | 0.00 | 0.19 | 0.13 | 96 | 1016.3 |
| 20260901082609 | 69 | 207 | 0.0 | 0.0 | 0.01 | 0.19 | 0.13 | 96 | 1016.5 |
| 20260901082103 | 69 | 207 | 0.0 | 0.0 | 0.04 | 0.19 | 0.13 | 96 | 1016.4 |
| 20260901081553 | 69 | 207 | 0.0 | 0.0 | 0.07 | 0.19 | 0.13 | 96 | 1016.3 |
| 20260901081047 | 69 | 207 | 0.0 | 0.0 | 0.07 | 0.19 | 0.13 | 96 | 1016.4 |
| 20260901080802 | 69 | 207 | 0.0 | 0.0 | 0.07 | 0.19 | 0.13 | 96 | 1016.5 |
| 20260901080032 | 69 | 207 | 0.0 | 0.0 | 0.07 | 0.19 | 0.13 | 96 | 1016.4 |
| 20260901075745 | 69 | 207 | 0.0 | 0.0 | 0.07 | 0.19 | 0.13 | 95 | 1016.5 |
| 20260901075019 | 69 | 207 | 0.0 | 0.0 | 0.07 | 0.19 | 0.13 | 95 | 1016.5 |
| 20260901074509 | 69 | 207 | 0.0 | 0.0 | 0.07 | 0.19 | 0.13 | 95 | 1016.5 |
| 20260901074003 | 69 | 207 | 0.0 | 0.0 | 0.07 | 0.19 | 0.13 | 95 | 1016.6 |
| 20260901073456 | 69 | 207 | 0.0 | 0.0 | 0.07 | 0.19 | 0.13 | 95 | 1016.5 |
| 20260901073000 | 69 | 207 | 0.0 | 0.0 | 0.06 | 0.18 | 0.12 | 96 | 1016.6 |
| 20260901072704 | 69 | 207 | 0.0 | 0.0 | 0.06 | 0.18 | 0.12 | 95 | 1016.5 |
| 20260901071935 | 69 | 207 | 0.0 | 0.0 | 0.02 | 0.14 | 0.09 | 95 | 1016.7 |
| 20260901071430 | 69 | 207 | 0.0 | 0.0 | 0.00 | 0.12 | 0.06 | 95 | 1016.7 |
| 20260901070927 | 69 | 207 | 0.0 | 0.0 | 0.00 | 0.12 | 0.06 | 95 | 1016.7 |
| 20260901070650 | 69 | 207 | 0.0 | 0.0 | 0.00 | 0.12 | 0.06 | 95 | 1016.7 |
| 20260901070145 | 70 | 207 | 0.0 | 0.0 | 0.00 | 0.12 | 0.06 | 95 | 1016.8 |
| 20260901065421 | 70 | 208 | 0.0 | 0.0 | 0.00 | 0.12 | 0.06 | 95 | 1017.0 |
| 20260901064921 | 69 | 208 | 0.0 | 0.0 | 0.00 | 0.12 | 0.06 | 95 | 1016.9 |
| 20260901064421 | 69 | 208 | 0.0 | 1.0 | 0.00 | 0.12 | 0.06 | 95 | 1016.8 |
| 20260901063919 | 69 | 208 | 0.0 | 1.0 | 0.00 | 0.12 | 0.06 | 95 | 1016.8 |
| 20260901063419 | 69 | 209 | 0.0 | 1.0 | 0.00 | 0.12 | 0.06 | 95 | 1016.8 |
| 20260901062918 | 69 | 209 | 0.0 | 2.0 | 0.00 | 0.12 | 0.06 | 95 | 1016.7 |
| 20260901062648 | 70 | 210 | 0.0 | 2.0 | 0.00 | 0.12 | 0.06 | 95 | 1016.9 |
| 20260901061919 | 70 | 210 | 0.0 | 2.0 | 0.00 | 0.12 | 0.06 | 95 | 1016.9 |
| 20260901061414 | 70 | 210 | 0.0 | 2.0 | 0.00 | 0.12 | 0.06 | 95 | 1017.0 |
| 20260901060915 | 70 | 202 | 0.0 | 1.0 | 0.00 | 0.12 | 0.06 | 95 | 1016.9 |
| 20260901060413 | 70 | 202 | 0.0 | 1.0 | 0.00 | 0.12 | 0.06 | 95 | 1017.0 |
| 20260901055911 | 70 | 202 | 0.0 | 2.0 | 0.00 | 0.12 | 0.06 | 95 | 1017.2 |
| 20260901055406 | 70 | 202 | 0.0 | 2.0 | 0.00 | 0.12 | 0.06 | 95 | 1017.1 |
| 20260901054900 | 70 | 97 | 0.0 | 1.0 | 0.00 | 0.12 | 0.06 | 95 | 1017.2 |
| 20260901054355 | 70 | 97 | 0.0 | 1.0 | 0.00 | 0.12 | 0.06 | 95 | 1017.2 |
| 20260901053853 | 70 | 97 | 0.0 | 1.0 | 0.00 | 0.12 | 0.06 | 95 | 1017.2 |
| 20260901053351 | 70 | 97 | 0.0 | 0.0 | 0.01 | 0.12 | 0.06 | 95 | 1017.3 |
| 20260901052852 | 70 | 97 | 0.0 | 1.0 | 0.02 | 0.12 | 0.06 | 95 | 1017.3 |
| 20260901052349 | 70 | 97 | 0.0 | 1.0 | 0.02 | 0.12 | 0.06 | 95 | 1017.3 |
| 20260901051847 | 70 | 97 | 0.0 | 0.0 | 0.02 | 0.12 | 0.06 | 95 | 1017.4 |
| 20260901051345 | 70 | 97 | 0.0 | 0.0 | 0.02 | 0.12 | 0.06 | 95 | 1017.3 |
| 20260901050845 | 70 | 97 | 0.0 | 0.0 | 0.02 | 0.12 | 0.06 | 95 | 1017.5 |
| 20260901050345 | 70 | 97 | 0.0 | 0.0 | 0.04 | 0.12 | 0.06 | 94 | 1017.5 |
| 20260901045844 | 70 | 97 | 0.0 | 0.0 | 0.06 | 0.12 | 0.06 | 94 | 1017.5 |
| 20260901045602 | 70 | 97 | 0.0 | 0.0 | 0.06 | 0.12 | 0.06 | 94 | 1017.5 |
| 20260901044844 | 70 | 97 | 0.0 | 0.0 | 0.07 | 0.12 | 0.06 | 94 | 1017.5 |
| 20260901044339 | 70 | 97 | 0.0 | 0.0 | 0.07 | 0.12 | 0.06 | 94 | 1017.6 |
| 20260901043840 | 70 | 97 | 0.0 | 0.0 | 0.07 | 0.12 | 0.06 | 94 | 1017.5 |
| 20260901043338 | 70 | 97 | 0.0 | 0.0 | 0.06 | 0.11 | 0.05 | 94 | 1017.6 |
| 20260901043110 | 70 | 97 | 0.0 | 0.0 | 0.05 | 0.10 | 0.04 | 94 | 1017.6 |
| 20260901042339 | 70 | 97 | 0.0 | 0.0 | 0.05 | 0.10 | 0.04 | 94 | 1017.6 |
| 20260901041840 | 70 | 97 | 0.0 | 0.0 | 0.05 | 0.10 | 0.04 | 94 | 1017.5 |
| 20260901041609 | 70 | 97 | 0.0 | 0.0 | 0.05 | 0.10 | 0.04 | 94 | 1017.7 |
| 20260901040840 | 70 | 97 | 0.0 | 0.0 | 0.05 | 0.09 | 0.04 | 94 | 1017.7 |
| 20260901040336 | 70 | 97 | 0.0 | 0.0 | 0.02 | 0.06 | 0.01 | 94 | 1017.6 |
| 20260901035835 | 70 | 97 | 0.0 | 0.0 | 0.03 | 0.06 | 0.06 | 93 | 1017.6 |
| 20260901035336 | 70 | 97 | 0.0 | 0.0 | 0.04 | 0.06 | 0.06 | 93 | 1017.7 |
| 20260901034834 | 70 | 97 | 0.0 | 0.0 | 0.04 | 0.05 | 0.05 | 93 | 1017.6 |
| 20260901034336 | 70 | 97 | 0.0 | 0.0 | 0.04 | 0.05 | 0.05 | 93 | 1017.7 |
| 20260901033836 | 70 | 97 | 0.0 | 0.0 | 0.04 | 0.05 | 0.05 | 93 | 1017.7 |
| 20260901033334 | 70 | 97 | 0.0 | 0.0 | 0.04 | 0.05 | 0.05 | 93 | 1017.6 |
| 20260901032836 | 70 | 97 | 0.0 | 0.0 | 0.04 | 0.05 | 0.05 | 92 | 1017.8 |
| 20260901032334 | 70 | 97 | 0.0 | 0.0 | 0.04 | 0.05 | 0.05 | 92 | 1017.8 |
| 20260901032057 | 70 | 97 | 0.0 | 0.0 | 0.04 | 0.05 | 0.05 | 92 | 1017.8 |
| 20260901031334 | 70 | 97 | 0.0 | 0.0 | 0.04 | 0.05 | 0.05 | 92 | 1017.8 |
| 20260901030835 | 70 | 97 | 0.0 | 1.0 | 0.03 | 0.04 | 0.05 | 92 | 1017.8 |
| 20260901030335 | 71 | 97 | 0.0 | 1.0 | 0.03 | 0.04 | 0.04 | 92 | 1018.0 |
| 20260901025836 | 71 | 97 | 0.0 | 1.0 | 0.02 | 0.03 | 0.03 | 92 | 1018.0 |
| 20260901025601 | 71 | 97 | 0.0 | 1.0 | 0.01 | 0.02 | 0.02 | 92 | 1018.0 |
| 20260901024835 | 71 | 97 | 0.0 | 0.0 | 0.00 | 0.01 | 0.01 | 92 | 1018.0 |
| 20260901024819 | 71 | 97 | 0.0 | 0.0 | 0.00 | 0.01 | 0.01 | 92 | 1018.1 |
| 20260901023826 | 71 | 97 | 0.0 | 0.0 | 0.00 | 0.01 | 0.01 | 92 | 1018.2 |
| 20260901023320 | 71 | 97 | 0.0 | 0.0 | 0.00 | 0.01 | 0.01 | 92 | 1018.2 |
| 20260901022814 | 71 | 97 | 0.0 | 0.0 | 0.00 | 0.01 | 0.01 | 92 | 1018.3 |
| 20260901022306 | 71 | 97 | 0.0 | 0.0 | 0.00 | 0.01 | 0.01 | 92 | 1018.4 |
| 20260901021758 | 71 | 97 | 0.0 | 0.0 | 0.00 | 0.01 | 0.01 | 92 | 1018.5 |
| 20260901021532 | 71 | 97 | 0.0 | 0.0 | 0.00 | 0.01 | 0.01 | 92 | 1018.5 |
| 20260901020742 | 71 | 97 | 0.0 | 0.0 | 0.00 | 0.01 | 0.01 | 92 | 1018.4 |
| 20260901020236 | 71 | 97 | 0.0 | 0.0 | 0.00 | 0.01 | 0.01 | 92 | 1018.4 |